Time,TemperatureF,DewpointF,PressureIn,WindDirection,WindDirectionDegrees,WindSpeedMPH,WindSpeedGustMPH,Humidity,HourlyPrecipIn,Conditions,Clouds,dailyrainin,SolarRadiationWatts/m^2,SoftwareType,DateUTC
2013-03-20 00:00:00,54.0,50.0,-100.00,North,6,0.0,-999.0,87,-99.99,,,-99.99,0.000000,,2013-03-20 05:00:00,
2013-03-20 00:53:00,54.0,50.0,-100.00,North,6,0.0,-999.0,87,-99.99,,,-99.99,0.000000,,2013-03-20 05:53:00,
2013-03-20 03:00:00,56.0,45.0,-100.00,North,8,1.0,-999.0,67,-99.99,,,-99.99,0.000000,,2013-03-20 08:00:00,
2013-03-20 03:52:00,56.0,45.0,-100.00,North,8,1.0,-999.0,67,-99.99,,,-99.99,0.000000,,2013-03-20 08:52:00,
2013-03-20 04:00:00,54.0,43.0,-100.00,NNE,21,1.0,-999.0,66,-99.99,,,-99.99,0.000000,,2013-03-20 09:00:00,
2013-03-20 04:53:00,54.0,43.0,-100.00,NNE,21,1.0,-999.0,66,-99.99,,,-99.99,0.000000,,2013-03-20 09:53:00,
2013-03-20 07:00:00,54.0,40.0,-100.00,NNE,15,1.0,-999.0,58,-99.99,,,-99.99,0.170000,,2013-03-20 12:00:00,
2013-03-20 07:52:00,54.0,40.0,-100.00,NNE,15,1.0,-999.0,58,-99.99,,,-99.99,0.170000,,2013-03-20 12:52:00,
2013-03-20 08:00:00,55.0,40.0,-100.00,North,8,2.0,-999.0,57,-99.99,,,-99.99,27.950001,,2013-03-20 13:00:00,
2013-03-20 08:53:00,55.0,40.0,-100.00,North,8,2.0,-999.0,57,-99.99,,,-99.99,27.950001,,2013-03-20 13:53:00,
2013-03-20 09:00:00,57.0,37.0,-100.00,NNE,21,2.0,-999.0,47,-99.99,,,-99.99,108.779999,,2013-03-20 14:00:00,
2013-03-20 09:53:00,57.0,37.0,-100.00,NNE,21,2.0,-999.0,47,-99.99,,,-99.99,108.779999,,2013-03-20 14:53:00,
2013-03-20 10:00:00,57.0,37.0,-100.00,NNE,25,1.0,-999.0,47,-99.99,,,-99.99,97.940002,,2013-03-20 15:00:00,
2013-03-20 10:53:00,57.0,37.0,-100.00,NNE,25,1.0,-999.0,47,-99.99,,,-99.99,97.940002,,2013-03-20 15:53:00,
2013-03-20 11:00:00,54.0,47.0,-100.00,NNE,21,1.0,-999.0,76,-99.99,,,-99.99,77.610001,,2013-03-20 16:00:00,
2013-03-20 11:53:00,54.0,47.0,-100.00,NNE,21,1.0,-999.0,76,-99.99,,,-99.99,77.610001,,2013-03-20 16:53:00,
2013-03-20 12:00:00,55.0,47.0,-100.00,WNW,288,1.0,-999.0,72,-99.99,,,-99.99,87.309998,,2013-03-20 17:00:00,
2013-03-20 12:53:00,55.0,47.0,-100.00,WNW,288,1.0,-999.0,72,-99.99,,,-99.99,87.309998,,2013-03-20 17:53:00,
2013-03-20 13:00:00,58.0,43.0,-100.00,North,0,1.0,-999.0,57,-99.99,,,-99.99,230.279999,,2013-03-20 18:00:00,
2013-03-20 13:53:00,58.0,43.0,-100.00,North,0,1.0,-999.0,57,-99.99,,,-99.99,230.279999,,2013-03-20 18:53:00,
2013-03-20 14:00:00,61.0,41.0,-100.00,North,359,1.0,-999.0,49,-99.99,,,-99.99,351.600006,,2013-03-20 19:00:00,
2013-03-20 15:00:00,68.0,40.0,-100.00,North,4,2.0,-999.0,36,-99.99,,,-99.99,644.390015,,2013-03-20 20:00:00,
2013-03-20 15:53:00,68.0,40.0,-100.00,North,4,2.0,-999.0,36,-99.99,,,-99.99,644.390015,,2013-03-20 20:53:00,
2013-03-20 16:00:00,68.0,37.0,-100.00,North,3,2.0,-999.0,32,-99.99,,,-99.99,650.179993,,2013-03-20 21:00:00,
2013-03-20 16:53:00,68.0,37.0,-100.00,North,3,2.0,-999.0,32,-99.99,,,-99.99,650.179993,,2013-03-20 21:53:00,
2013-03-20 17:00:00,68.0,37.0,-100.00,North,9,2.0,-999.0,33,-99.99,,,-99.99,486.589996,,2013-03-20 22:00:00,
2013-03-20 17:53:00,68.0,37.0,-100.00,North,9,2.0,-999.0,33,-99.99,,,-99.99,486.589996,,2013-03-20 22:53:00,
2013-03-20 18:00:00,65.0,33.0,-100.00,North,4,2.0,-999.0,30,-99.99,,,-99.99,290.609985,,2013-03-20 23:00:00,
2013-03-20 18:53:00,65.0,33.0,-100.00,North,4,2.0,-999.0,30,-99.99,,,-99.99,290.609985,,2013-03-20 23:53:00,
2013-03-20 19:00:00,57.0,34.0,-100.00,North,4,1.0,-999.0,42,-99.99,,,-99.99,81.790001,,2013-03-21 00:00:00,
2013-03-20 19:52:00,57.0,34.0,-100.00,North,4,1.0,-999.0,42,-99.99,,,-99.99,81.790001,,2013-03-21 00:52:00,
2013-03-20 20:00:00,52.0,33.0,-100.00,North,0,0.0,-999.0,47,-99.99,,,-99.99,0.880000,,2013-03-21 01:00:00,
2013-03-20 20:53:00,52.0,33.0,-100.00,North,0,0.0,-999.0,47,-99.99,,,-99.99,0.880000,,2013-03-21 01:53:00,
2013-03-20 21:00:00,47.0,38.0,-100.00,North,0,0.0,-999.0,71,-99.99,,,-99.99,0.000000,,2013-03-21 02:00:00,
2013-03-20 22:00:00,44.0,39.0,-100.00,North,359,0.0,-999.0,82,-99.99,,,-99.99,0.000000,,2013-03-21 03:00:00,
2013-03-20 22:53:00,44.0,39.0,-100.00,North,359,0.0,-999.0,82,-99.99,,,-99.99,0.000000,,2013-03-21 03:53:00,
2013-03-20 23:00:00,47.0,34.0,-100.00,NNE,13,1.0,-999.0,61,-99.99,,,-99.99,0.000000,,2013-03-21 04:00:00,
2013-03-20 23:53:00,47.0,34.0,-100.00,NNE,13,1.0,-999.0,61,-99.99,,,-99.99,0.000000,,2013-03-21 04:53:00,